Location: Elstree
(51.6403°N, 0.2969°W)
Time: 18:48:42
(UTC+00:00)

ASTEX 1 - Visible Passes

Search period start: 22 June 2021 00:00
Search period end: 02 July 2021 00:00
Orbit: 719 x 745 km, 92.7° (Epoch: 22 June)

Date Brightness Start Highest point End Pass type
(mag) Time Alt. Az. Time Alt. Az. Time Alt. Az.
22 Jun 5.1 01:48:08 10° SE 01:52:26 31° ENE 01:56:45 10° N visible
23 Jun 6.0 01:03:31 10° E 01:06:12 15° ENE 01:08:53 10° NNE visible
23 Jun 3.5 02:39:31 10° S 02:44:27 87° E 02:49:24 10° N visible
24 Jun 4.8 01:53:21 10° SE 01:57:52 38° ENE 02:02:23 10° N visible
25 Jun 5.9 01:08:19 10° ESE 01:11:34 18° ENE 01:14:47 10° NNE visible
25 Jun 3.4 02:45:03 10° S 02:49:58 77° W 02:54:55 10° N visible
26 Jun 4.4 01:58:38 10° SSE 02:03:18 46° ENE 02:08:00 10° N visible
27 Jun 5.6 01:13:17 10° ESE 01:16:56 21° ENE 01:20:35 10° NNE visible
27 Jun 3.5 02:50:38 10° S 02:55:30 63° W 03:00:23 10° NNW visible
28 Jun 4.0 02:03:59 10° SSE 02:08:46 56° ENE 02:13:35 10° N visible
29 Jun 5.4 01:18:21 10° SE 01:22:19 25° ENE 01:26:19 10° NNE visible
29 Jun 3.7 02:56:17 10° SSW 03:01:03 51° W 03:05:50 10° NNW visible
30 Jun 6.1 00:34:22 10° E 00:36:09 12° ENE 00:37:57 10° NE visible
30 Jun 3.7 02:09:23 10° SSE 02:14:15 70° E 02:19:08 10° N visible
01 Jul 5.0 01:23:29 10° SE 01:27:44 31° ENE 01:32:00 10° NNE visible
01 Jul 4.0 03:01:59 10° SSW 03:06:37 41° W 03:11:15 10° NNW visible
